Regional Weather Roundup
Issued by NWS

Home | Current Version | Previous Version | Text Only | Print | Product List | Glossary On
Versions: 1 2 3 4 5 6 7 8 9 10 11 12 13 14 15 16 17 18 19 20 21 22 23 24 25 26 27 28 29 30 31 32 33 34 35 36 37 38 39 40 41 42 43 44 45 46 47 48 49 50
000
ASUS43 KLMK 211310
RWRKY
KENTUCKY REGIONAL WEATHER ROUNDUP
NATIONAL WEATHER SERVICE LOUISVILLE KY
900 AM EDT MON APR 21 2014

NOTE "FAIR" INDICATES FEW OR NO CLOUDS BELOW 12,000 FEET
WITH NO SIGNIFICANT WEATHER AND/OR OBSTRUCTIONS TO VISIBILITY.

KYZ001>023-026-027-061>063-070>075-211400-
WESTERN AND SOUTH CENTRAL KENTUCKY

CITY           SKY/WX    TMP DP  RH WIND       PRES   REMARKS
PADUCAH        CLOUDY    66  51  58 VRB5      30.05F
HENDERSON      PTSUNNY   61  48  63 S6        30.06S
OWENSBORO      PTSUNNY   58  48  69 S7        30.07F
HOPKINSVILLE   PTSUNNY   63  50  63 S2        30.09S
BOWLING GREEN  MOSUNNY   56  50  80 CALM      30.10F
GLASGOW        PTSUNNY   54  49  82 CALM      30.11S
$$

KYZ024-025-028>034-038-045-046-053-211400-
NORTH CENTRAL KENTUCKY

CITY           SKY/WX    TMP DP  RH WIND       PRES   REMARKS
LOUISVILLE/SDF CLOUDY    58  47  66 CALM      30.08S HAZE
LOUISVILLE/LOU MOSUNNY   61  46  57 CALM      30.08S
FORT KNOX      CLOUDY    60  46  61 S5        30.07S
$$

KYZ035>037-039>044-047>052-055>060-089>105-211400-
NORTHEAST KENTUCKY

CITY           SKY/WX    TMP DP  RH WIND       PRES   REMARKS
LEXINGTON      CLOUDY    61  47  59 S6        30.10R
COVINGTON      CLOUDY    60  44  55 SW3       30.07S
FRANKFORT      CLOUDY    56  48  74 CALM      30.08S
$$

KYZ054-064>069-076>088-106>120-211400-
SOUTHEAST KENTUCKY

CITY           SKY/WX    TMP DP  RH WIND       PRES   REMARKS
JACKSON        SUNNY     61  34  36 S3        30.13R
LONDON         PTSUNNY   61  44  53 S6        30.13S
SOMERSET       CLOUDY    52  45  76 CALM      30.14S
MIDDLESBORO    SUNNY     52  42  68 CALM      30.17S
MONTICELLO     CLOUDY    53  47  80 CALM      30.14S
$$




USA.gov is the U.S. government's official web portal to all federal, state and local government web resources and services.